DELTA 1 DEB, 40768

Orbit data source: Space-Track

DELTA 1 DEB, 40768 is space debris in SSO originally from a launch on Thu, 29 Jul 1976 UTC launched from the Air Force Western Test Range (AFWTR). Debris objects in space refer to the collection of defunct objects orbiting the Earth. Examples of debris include non-operational satellites, rocket bodies, and fragments generated from explosions, collisions, or faulty payload assembly.

Loading next visibility...
Identifier
40768, 1976-077GM
Orbit
SSO
Country
Flag of USUS
Related business
Manufacturer
Unknown
Mission
Spacecraft
Bus & Motor
Unknown
Mass
Unknown
Launch date (UTC)
1976-07-29 (50 years ago)
Launch vehicle
Unknown
Launch site
Air Force Western Test Range (AFWTR)
Object type
Payload
Rocket body
Debris
Shape & HBR
Unknown shape, 0.1 m
Radar Cross Section
Medium (>0.1 m² and <1 m²)

Expand to show TLE details & history
Last TLE update: 4 days ago

TLE from 4 days ago
0 DELTA 1 DEB
1 40768U 76077GM  26261.73497262  .00000322  00000-0  19875-2 0  9998
2 40768 101.4094 240.8087 0046853 207.0553 152.8083 12.64270932590875
Epoch: 2026-09-18T17:38Z
TLE epoch observation values (Epoch: 2026-09-18T17:38:21.634Z)
Latitude
-0.00003°
Longitude
-21.43503°
Altitude
1,440.449 km
Speed
7.127 km/s
True Right ascension
16h 03m 14s
True Declination
0° 00' 00"
Sunlit
Object was in daylight at epoch
Visualization orbit readout
Latitude
Unknown
Longitude
Unknown
Altitude
Unknown
Speed
Unknown
Apparent Right ascension
Unknown
Apparent Declination
Unknown
Sunlit
N/A
Visualization observer readout
Local Sidereal Time
18:36:51
Azimuth
Unknown
Elevation
Unknown
Doppler factor
Unknown
Orbital elements
Apogee altitude
1,439.33 km
Perigee altitude
1,366.417 km
Semi-major axis
7,781.011 km
Eccentricity
0.00469
Inclination
101.4094°
RAAN
240.8087°
Arg. of periapsis
207.0553°
True anomaly
153.05237°
Mean anomaly
152.8083°
Eccentric anomaly
152.93046°
Mean motion
3.1622 °/min
Orbital period
113.84 mins
BSTAR
0.0019875
Loading maneuver chart data...
Computing Atmospheric mass density...
Loading historical data...
Loading historical data...
Loading historical data...
Loading historical data...
Loading historical data...
Loading historical data...
Loading historical data...

Documentation

Showing up to 5 results
|